Weather History for Mobile Downtown, AL

Change the Weather History Date:

Thursday, September 26, 2013

  Actual Average Record
Temperature  
Mean Temperature 79 °F -  
Max Temperature 88 °F 82 °F 91 °F (1998)
Min Temperature 70 °F 64 °F 51 °F (2001)
Cooling Degree Days 14    
Growing Degree Days 29 (Base 50)    
Moisture  
Dew Point 70 °F    
Average Humidity 79    
Maximum Humidity 100    
Minimum Humidity 42    
Precipitation  
Precipitation 0.00 in - - ()
Sea Level Pressure  
Sea Level Pressure 29.89 in    
Wind  
Wind Speed 3 mph (East)    
Max Wind Speed 17 mph    
Max Gust Speed -    
Visibility 8 miles    
Events      
Averages and records for this station are not official NWS values.
T = Trace of Precipitation, MM = Missing Value Source: NWS Daily Summary

Daily Weather History Graph

Daily Weather History Graph

Search for Another Location

Airport:

Trip Planner

Search our weather history database for the weather conditions in past years. The results will help you decide how hot, cold, wet, or windy it might be!

Date:

Astronomy

Sep. 26, 2013 Rise Set
Actual Time 6:43 AM CDT 6:43 PM CDT
Civil Twilight 6:19 AM CDT 7:07 PM CDT
Nautical Twilight 5:51 AM CDT 7:35 PM CDT
Astronomical Twilight 5:22 AM CDT 8:03 PM CDT
Moon No Moon Rise 1:14 PM CDT (9/26)
Length of Visible Light 12h 48m
Length of Day
12h 00m
Waning Gibbous, 54% of the Moon is Illuminated
Sep 26
Waning Gibbous
Sep 26
Last Quarter
Oct 4
New
Oct 11
First Quarter
Oct 18
Full

Hourly Weather History & Observations

Time (CDT) Temp. Heat Index Dew Point Humidity Pressure Visibility Wind Dir Wind Speed Gust Speed Precip Events Conditions
12:53 AM 73.0 °F - 71.1 °F 93% 29.83 in 7.0 mi Calm Calm - N/A   Clear
1:53 AM 72.0 °F - 71.1 °F 97% 29.84 in 6.0 mi Calm Calm - N/A   Mostly Cloudy
2:27 AM 71.6 °F - 71.6 °F 100% 29.83 in 1.5 mi Calm Calm - N/A   Mostly Cloudy
2:47 AM 71.6 °F - 71.6 °F 100% 29.84 in 3.0 mi Calm Calm - N/A   Mostly Cloudy
2:53 AM 72.0 °F - 71.1 °F 97% 29.83 in 4.0 mi Calm Calm - N/A   Overcast
3:08 AM 73.4 °F - 71.6 °F 94% 29.83 in 2.5 mi Calm Calm - N/A   Overcast
3:14 AM 73.4 °F - 71.6 °F 94% 29.83 in 8.0 mi Calm Calm - N/A   Mostly Cloudy
3:53 AM 72.0 °F - 71.1 °F 97% 29.84 in 5.0 mi Calm Calm - N/A   Mostly Cloudy
4:53 AM 71.1 °F - 70.0 °F 96% 29.84 in 5.0 mi Calm Calm - N/A   Clear
5:53 AM 70.0 °F - 69.1 °F 97% 29.86 in 5.0 mi Calm Calm - N/A   Clear
6:53 AM 71.1 °F - 70.0 °F 96% 29.88 in 5.0 mi NW 5.8 mph - N/A   Scattered Clouds
7:53 AM 75.9 °F - 73.9 °F 94% 29.90 in 10.0 mi Calm Calm - N/A   Mostly Cloudy
8:15 AM 78.8 °F - 73.4 °F 83% 29.90 in 1.2 mi East 5.8 mph - N/A   Haze
8:22 AM 78.8 °F - 73.4 °F 83% 29.90 in 10.0 mi East 5.8 mph - N/A   Mostly Cloudy
8:53 AM 78.1 °F - 72.0 °F 81% 29.91 in 10.0 mi East 5.8 mph - N/A   Scattered Clouds
9:53 AM 80.1 °F 83.6 °F 71.1 °F 74% 29.93 in 10.0 mi ENE 5.8 mph - N/A   Scattered Clouds
10:53 AM 82.9 °F 88.0 °F 72.0 °F 69% 29.94 in 10.0 mi East 4.6 mph - N/A   Scattered Clouds
11:53 AM 82.9 °F 88.0 °F 72.0 °F 69% 29.93 in 10.0 mi East 5.8 mph - N/A   Scattered Clouds
12:53 PM 84.0 °F 89.0 °F 71.1 °F 65% 29.91 in 10.0 mi SE 5.8 mph - N/A   Scattered Clouds
1:53 PM 88.0 °F 88.4 °F 62.1 °F 42% 29.90 in 10.0 mi SE 5.8 mph - N/A   Scattered Clouds
2:53 PM 87.1 °F 89.9 °F 66.9 °F 51% 29.88 in 10.0 mi SSE 6.9 mph - N/A   Scattered Clouds
3:53 PM 87.1 °F 88.3 °F 64.0 °F 46% 29.88 in 10.0 mi South 4.6 mph - N/A   Partly Cloudy
4:53 PM 84.9 °F 87.6 °F 66.9 °F 55% 29.88 in 10.0 mi South 3.5 mph - N/A   Scattered Clouds
5:53 PM 82.9 °F 87.0 °F 70.0 °F 65% 29.89 in 10.0 mi Calm Calm - N/A   Mostly Cloudy
6:53 PM 82.9 °F 85.8 °F 68.0 °F 60% 29.90 in 10.0 mi East 8.1 mph - N/A   Overcast
7:53 PM 82.0 °F 85.9 °F 70.0 °F 67% 29.92 in 10.0 mi ENE 9.2 mph - N/A   Overcast
8:53 PM 80.1 °F 83.6 °F 71.1 °F 74% 29.94 in 10.0 mi ENE 17.3 mph - N/A   Mostly Cloudy
9:53 PM 78.1 °F - 70.0 °F 76% 29.96 in 10.0 mi ENE 17.3 mph - N/A   Mostly Cloudy
10:53 PM 78.1 °F - 69.1 °F 74% 29.96 in 10.0 mi ENE 16.1 mph - N/A   Mostly Cloudy
11:53 PM 75.9 °F - 68.0 °F 76% 29.97 in 10.0 mi ENE 11.5 mph - N/A   Partly Cloudy